map of ORN home
ORN - Airport
Location
City:  Oran, Oran, Algeria
Near (Alt.):Es SÚnia
Name:Es SÚnia International Airport
Old (Alt.):Ahmed Ben Bella AB
ICAO:DAOO
IATA:ORN

Details
Type:Airport (Aerodrome, Airfield)
Use:Public/Civil, Military, International (customs port of entry)
Latitude:35░37'38"N (35.627222)
Longitude:0░36'41"W (-0.611388)
Elevation:299 ft (91 m)
Variation:0.19░E (WMM2015 magnetic declination)
0.11░ annual change
Runways:2
Longest:10039 × 148 ft (3060 × 45 m)

Time
Time Zone:UTC+1
Local Time:

Weather
METAR:DAOO 261700Z 01008KT 340V040 3000 BR BKN013 BKN026 17/15 Q1014
TAF:DAOO 261100Z 2612/2712 36008KT 4000 RA BR BKN010 BKN026 SCT100
BECMG 2615/2518 9000 BKN020 SCT026
TEMPO 2619/2704 28008KT 3000 BR DZ OVC010
BECMG 2705/2708 6000 SCT010 SCT020
BECMG 2709/2712 9999 SCT023

Related Locations
Nearby:
Farthest:NZOP: 12232 mi / 19686 km
Opotiki, BOP, NZ

Find:

   beyond  
but within

Other Information
Maps:
NOTAMs:
Links:
Sources:

  
flag of Algeria   

Sectional Chart

Flight Planning
at skyvector.com

Satellite Image

Google Maps Satellite view

 

Copyright © 2004-2018 Karl L. Swartz. All rights reserved.
The Great Circle Mapper name and logo are trademarks of the Great Circle Mapper.
All other trademarks mentioned herein belong to their respective owners.
Please see credits for attibutions and further copyright information.

  Follow gcmap on Facebook Follow gcmap on Twitter Follow gcmap on Google+ GCmap on LinkedIn

hCard Microformat

Geo Microformat